Location: Düngen
(52.0952°N, 10.0219°E)
Time: 18:20:20
(UTC+00:00)

Cosmos 1943 Rocket - Pass Details

Date: 11 March 2026
Orbit: 809 x 844 km, 71.0° (Epoch: 20 April)

Event Time Altitude Azimuth Distance (km) Brightness Sun altitude
Rises 19:41:29 0° 255° (WSW) 3,348 6.1 -22.4°
Reaches altitude 10° 19:44:21 10° 269° (W) 2,424 5.4 -22.8°
Maximum altitude 19:48:50 24° 323° (NW) 1,643 4.3 -23.4°
Drops below altitude 10° 19:53:23 10° 17° (NNE) 2,452 4.7 -24.0°
Sets 19:56:18 0° 31° (NNE) 3,395 5.3 -24.4°
